Regional Weather Roundup
Issued by NWS Little Rock, AR

Home | Current Version | Previous Version | Graphics & Text | Print | Product List | Glossary On
Versions: 1 2 3 4 5 6 7 8 9 10 11 12 13 14 15 16 17 18 19 20 21 22 23 24 25 26 27 28 29 30 31
000
ASUS44 KLZK 121505
RWRLZK

WEATHER ROUNDUP FOR ARKANSAS
NATIONAL WEATHER SERVICE LITTLE ROCK AR
900 AM CST TUE DEC 12 2017

NOTE: "FAIR" INDICATES FEW OR NO CLOUDS BELOW 12,000 FEET WITH NO
SIGNIFICANT WEATHER AND/OR OBSTRUCTIONS TO VISIBILITY.

ARZ001-003-010-029-121600-
NORTHWEST ARKANSAS

CITY           SKY/WX    TMP DP  RH WIND       PRES   REMARKS
FAYETTEVILLE   SUNNY     32  23  69 N7        30.32R WCI  26
FORT SMITH     SUNNY     39  21  48 NW8       30.36R
HARRISON       SUNNY     31  22  69 NW13G18   30.28R WCI  21
BENTONVILLE    SUNNY     31  21  66 N8        30.35R WCI  23
ROGERS         SUNNY     30  20  66 NW12      30.33R WCI  20
SILOAM SPGS    SUNNY     32  22  66 N14       30.35R WCI  22
HIGHFILL       SUNNY     32  21  64 N13       30.33R WCI  22
SPRINGDALE     SUNNY     32  19  59 N10       30.33R WCI  24
$$

ARZ004-005-016-121600-
NORTH CENTRAL ARKANSAS

CITY           SKY/WX    TMP DP  RH WIND       PRES   REMARKS
BATESVILLE     SUNNY     37  22  54 NW12G20   30.27R
FLIPPIN        SUNNY     35  23  61 NW12G20   30.30R WCI  27
MTN HOME       SUNNY     33  23  66 N7        30.28R WCI  27
$$

ARZ040-041-121600-
WEST CENTRAL ARKANSAS

CITY           SKY/WX    TMP DP  RH WIND       PRES   REMARKS
MENA           NOT AVBL
MOUNT IDA      SUNNY     41  22  46 NW9       30.28R
$$

ARZ009-017-025-026-028-121600-
NORTHEAST ARKANSAS

CITY           SKY/WX    TMP DP  RH WIND       PRES   REMARKS
JONESBORO      SUNNY     40  27  59 NW16G25   30.23R
NEWPORT        SUNNY     38  25  59 NW21      30.26R
WALNUT RIDGE   SUNNY     37  23  56 NW20      30.25R
BLYTHEVILLE    SUNNY     44  29  55 N25       30.21R
NW BLYTHEVILLE SUNNY     41  28  60 N12G24    30.21R
$$

ARZ022-023-033-042-044-121600-
CENTRAL ARKANSAS

CITY           SKY/WX    TMP DP  RH WIND       PRES   REMARKS
LITTLE ROCK    SUNNY     43  24  47 NW20G26   30.28R
N LITTLE ROCK    N/A     42  24  49 NW12G22   30.28R
JACKSONVILLE   SUNNY     42  22  44 NW10G20   30.26R
SEARCY         SUNNY     41  21  44 N10       30.27R
HOT SPRINGS    SUNNY     45  25  45 N10G20    30.27R
RUSSELLVILLE   SUNNY     41  22  46 NW10      30.29R
CLINTON        FAIR      39  25  56 VRB7G15   30.27S
$$

ARZ036-121600-
EAST ARKANSAS

CITY           SKY/WX    TMP DP  RH WIND       PRES   REMARKS
WEST MEMPHIS   SUNNY     43  31  62 NW13G21   30.21R
$$

ARZ050-053-066-070-073-121600-
SOUTHWEST ARKANSAS

CITY           SKY/WX    TMP DP  RH WIND       PRES   REMARKS
ARKADELPHIA    FAIR      47  27  45 NW7       30.30R
CAMDEN         SUNNY     48  28  46 VRB6      30.28R
TEXARKANA      SUNNY     45  28  51 NW10      30.31R
EL DORADO      SUNNY     48  33  56 NW14      30.28R
DE QUEEN       SUNNY     44  24  45 NW5       30.30R
$$

ARZ056-057-069-121600-
SOUTHEAST ARKANSAS

CITY           SKY/WX    TMP DP  RH WIND       PRES   REMARKS
PINE BLUFF     SUNNY     45  25  45 N18G32    30.26R
STUTTGART      SUNNY     43  24  47 NW20      30.25R
MONTICELLO     SUNNY     47  30  51 NW8       30.24R

$$






USA.gov is the U.S. government's official web portal to all federal, state and local government web resources and services.